Vorticity
13 19 14 16 19 6 6 -0 2 -10 8 5 3 3 3 6 9 11 9 9 9 9 9 10 9 9 7 6 6 5 7 8 10 8 10 4 11 6 15 5 2 17 17
11 10 18 -0 8 9 6 6 4 -14 7 13 3 -1 -3 6 -5 18 13 11 10 8 9 7 4 6 8 8 6 6 5 5 5 7 9 -3 10 15 3 14 5 7 14
-0 6 2 -1 3 10 21 5 3 10 10 9 5 9 5 -3 6 14 8 11 8 5 5 7 6 6 5 5 8 6 4 5 6 5 9 1 4 1 7 -3 21 12 5
10 8 4 8 7 -3 3 10 7 6 10 -2 5 9 11 -8 11 8 4 7 9 8 6 4 4 4 3 7 -0 3 10 3 -0 0 3 4 6 4 -0 5 14 22 15
-1 4 -4 -1 -0 7 6 -2 7 10 8 9 14 3 1 -7 2 12 7 9 8 7 6 5 5 3 10 5 10 -1 4 8 4 14 2 3 3 3 -2 -9 14 13 20
8 2 5 5 12 5 4 9 9 1 5 11 9 -0 0 -5 10 20 7 8 9 8 11 7 4 4 5 0 6 4 12 -4 11 -11 13 22 3 12 -5 9 11 15 12
9 -0 8 14 3 7 4 11 9 2 -1 8 4 2 -1 18 14 8 11 14 13 10 8 12 10 14 9 4 4 18 -9 7 22 3 -6 33 15 11 24 -16 2 15 9
5 15 14 6 5 9 9 9 7 -4 3 4 1 11 11 11 10 9 11 8 5 7 9 13 21 16 13 5 29 1 16 38 14 16 14 -8 -7 11 -4 12 21 8 6
9 13 8 6 10 5 -3 2 3 -2 -2 1 23 13 9 12 11 9 9 13 15 18 26 27 23 18 12 20 14 13 19 14 23 14 11 16 14 13 12 8 11 12 9
18 11 -4 -2 2 3 4 2 1 5 17 9 10 11 9 6 9 13 21 23 28 26 19 20 13 25 26 34 29 29 17 11 18 17 16 14 13 13 12 9 8 9 12
9 1 -3 13 2 4 -4 1 16 15 5 9 10 10 8 10 13 12 16 24 17 15 13 11 10 24 1 -2 15 10 5 9 9 9 10 11 12 12 13 14 15 15 15
5 -6 -3 3 13 -2 -6 9 10 15 14 10 11 10 6 9 12 12 17 15 3 9 23 3 15 19 9 10 9 4 6 8 10 10 11 12 14 13 14 15 15 13 11
1 9 2 8 19 14 14 6 17 11 9 5 7 12 10 11 16 25 16 6 6 16 10 4 11 13 10 8 4 7 10 10 11 12 13 14 14 12 10 10 9 9 10
7 3 -1 20 10 6 11 10 10 6 5 8 8 11 14 22 24 16 8 10 16 12 18 14 10 10 5 8 12 11 14 15 14 13 12 12 14 15 14 12 11 10 10
-4 16 23 18 13 9 9 8 0 -0 3 14 12 15 21 22 16 9 13 19 19 15 14 9 3 12 10 10 12 10 9 10 9 12 12 12 10 10 11 12 12 10 9
12 1 0 19 9 5 9 8 5 6 6 14 16 28 33 9 16 21 18 13 -21 16 24 13 7 8 9 10 9 10 10 10 11 12 11 10 10 11 11 18 23 23 21
1 32 13 14 3 8 7 6 9 8 12 15 26 27 13 11 11 9 11 8 4 5 7 8 9 10 10 10 9 11 11 12 12 11 10 11 18 28 21 17 15 14 12
26 8 6 3 12 6 7 6 12 10 20 26 24 8 7 12 13 13 3 2 6 8 11 12 11 10 10 12 13 12 12 13 12 11 20 28 16 13 12 11 12 13 13
24 18 13 5 10 6 5 8 13 25 27 20 8 12 12 8 -3 3 9 5 10 12 11 9 8 10 12 13 13 11 16 13 11 31 16 12 9 10 9 9 13 21 22
6 5 5 2 6 13 15 19 24 29 8 18 13 5 7 11 13 5 9 11 12 10 8 10 10 14 14 12 12 16 14 14 26 13 11 10 13 15 16 13 11 17 16
4 4 8 15 15 21 26 19 22 7 8 10 11 14 12 7 9 11 11 10 9 9 11 11 11 13 12 12 15 16 14 19 11 12 14 12 14 17 18 16 14 18 15
3 15 12 15 18 21 19 9 8 16 18 3 3 11 7 8 11 11 9 11 13 12 10 10 11 13 13 15 18 13 18 11 11 13 9 9 11 18 28 28 26 24 19
10 11 16 15 22 15 19 15 13 7 5 3 11 11 7 13 12 8 9 12 11 12 11 11 12 14 13 22 15 21 13 11 14 9 9 8 13 34 28 23 20 18 14
12 13 19 23 19 12 10 17 19 11 18 12 5 10 13 11 7 9 11 12 13 13 12 11 12 14 15 21 21 18 14 14 11 10 8 9 29 19 14 9 9 14 14
12 14 18 18 16 13 15 25 29 10 5 9 12 12 9 8 11 12 13 14 14 13 12 11 12 12 21 16 23 15 14 9 8 9 9 13 29 16 11 11 11 12 13
12 19 12 13 13 12 14 10 6 8 13 12 11 8 9 13 15 15 15 15 12 12 12 12 13 15 20 15 20 15 13 7 7 9 9 13 26 18 15 13 12 10 9
Height
3145 3145 3145 3144 3144 3143 3142 3140 3137 3134 3131 3126 3123 3121 3118 3115 3111 3106 3103 3100 3096 3092 3088 3086 3083 3079 3076 3075 3074 3072 3071 3070 3068 3066 3066 3066 3065 3065 3062 3061 3061 3059 3055
3142 3143 3142 3142 3142 3142 3139 3136 3133 3130 3126 3123 3119 3116 3113 3110 3105 3099 3094 3090 3087 3085 3082 3079 3076 3072 3068 3065 3063 3061 3060 3060 3059 3056 3055 3053 3055 3054 3054 3052 3050 3049 3048
3141 3141 3140 3140 3139 3138 3135 3133 3131 3125 3120 3115 3112 3108 3105 3101 3097 3093 3087 3083 3078 3075 3071 3068 3065 3062 3059 3056 3052 3050 3049 3049 3049 3046 3045 3041 3039 3041 3043 3042 3040 3039 3037
3138 3137 3136 3134 3133 3131 3129 3126 3123 3120 3116 3111 3106 3101 3096 3091 3086 3082 3079 3076 3072 3067 3062 3058 3055 3052 3049 3045 3042 3039 3036 3036 3036 3035 3033 3031 3028 3025 3023 3028 3027 3026 3026
3135 3133 3131 3129 3128 3126 3123 3121 3117 3113 3108 3104 3099 3094 3088 3083 3078 3074 3069 3065 3062 3056 3051 3049 3046 3043 3039 3034 3030 3027 3024 3022 3021 3020 3019 3019 3017 3014 3011 3006 3014 3014 3012
3134 3132 3130 3128 3124 3121 3117 3113 3109 3105 3101 3097 3092 3086 3080 3076 3070 3065 3060 3056 3051 3047 3041 3037 3034 3031 3027 3022 3018 3016 3012 3011 3008 3006 3007 3006 3004 3002 3002 3000 2998 2998 2999
3129 3126 3123 3120 3117 3113 3109 3105 3101 3097 3093 3088 3083 3079 3074 3067 3060 3055 3049 3043 3037 3032 3028 3025 3021 3019 3016 3012 3009 3003 3003 2999 2995 2996 2996 2994 2993 2992 2990 2988 2987 2982 2985
3125 3121 3118 3115 3111 3107 3103 3099 3094 3089 3085 3080 3074 3068 3062 3056 3050 3043 3037 3031 3024 3018 3013 3009 3005 3005 3002 2999 2992 2992 2991 2987 2988 2986 2984 2984 2984 2981 2979 2976 2974 2970 2968
3118 3116 3113 3110 3105 3101 3097 3092 3086 3081 3075 3068 3062 3056 3050 3044 3038 3032 3025 3019 3013 3006 3000 2997 2994 2992 2989 2986 2983 2982 2981 2978 2977 2975 2973 2972 2970 2968 2965 2964 2962 2958 2952
3114 3112 3108 3104 3099 3095 3090 3084 3078 3071 3065 3059 3053 3046 3040 3033 3026 3019 3012 3005 2998 2993 2989 2987 2986 2983 2982 2980 2976 2974 2971 2968 2966 2964 2962 2959 2957 2956 2953 2951 2950 2947 2943
3110 3106 3103 3098 3093 3088 3082 3075 3068 3062 3056 3048 3041 3035 3027 3020 3013 3005 2999 2993 2989 2984 2980 2978 2977 2974 2971 2968 2965 2963 2961 2958 2956 2953 2950 2947 2945 2942 2940 2938 2936 2933 2931
3105 3100 3095 3090 3085 3080 3073 3066 3059 3052 3046 3038 3030 3023 3016 3008 3000 2993 2987 2982 2979 2976 2973 2970 2967 2964 2962 2960 2957 2954 2951 2947 2943 2940 2937 2934 2932 2929 2927 2924 2922 2919 2918
3097 3093 3089 3082 3075 3069 3062 3055 3048 3042 3035 3028 3021 3012 3004 2995 2987 2981 2976 2974 2971 2968 2964 2961 2958 2955 2952 2950 2947 2943 2939 2935 2931 2927 2924 2922 2919 2916 2914 2912 2908 2906 2905
3089 3084 3078 3072 3065 3058 3052 3045 3039 3032 3025 3018 3009 2999 2991 2983 2976 2973 2969 2964 2962 2960 2956 2953 2950 2947 2944 2941 2937 2933 2928 2924 2920 2917 2914 2910 2907 2903 2900 2897 2895 2893 2890
3080 3074 3068 3062 3055 3049 3044 3037 3030 3023 3014 3005 2996 2986 2978 2971 2966 2963 2960 2957 2954 2952 2949 2946 2942 2938 2935 2930 2925 2920 2915 2911 2908 2905 2902 2898 2894 2891 2887 2883 2881 2878 2875
3070 3063 3057 3052 3045 3040 3034 3027 3020 3011 3001 2992 2984 2976 2969 2966 2962 2958 2955 2952 2948 2943 2939 2936 2933 2929 2924 2919 2914 2909 2904 2901 2897 2893 2890 2886 2881 2877 2873 2869 2866 2863 2859
3061 3055 3050 3043 3038 3031 3024 3016 3008 2998 2989 2981 2975 2969 2964 2960 2956 2952 2948 2944 2940 2937 2933 2929 2925 2920 2916 2910 2904 2899 2894 2890 2886 2881 2876 2871 2868 2863 2859 2857 2854 2851 2849
3052 3047 3041 3035 3030 3023 3015 3006 2996 2987 2978 2972 2967 2964 2959 2955 2951 2947 2943 2939 2935 2930 2926 2922 2917 2912 2907 2900 2895 2890 2885 2880 2876 2870 2865 2859 2856 2853 2848 2844 2841 2839 2837
3044 3038 3033 3028 3020 3013 3004 2994 2985 2977 2970 2965 2961 2958 2953 2949 2946 2942 2937 2932 2927 2923 2919 2913 2908 2902 2897 2891 2886 2880 2875 2870 2866 2860 2856 2850 2846 2843 2839 2834 2829 2826 2825
3037 3031 3024 3017 3009 3000 2992 2984 2976 2969 2966 2961 2956 2953 2948 2943 2939 2936 2930 2925 2920 2915 2910 2905 2900 2893 2887 2882 2877 2871 2865 2861 2856 2853 2849 2844 2838 2833 2829 2824 2820 2815 2816
3030 3024 3016 3006 2998 2989 2982 2976 2970 2966 2961 2956 2951 2947 2942 2938 2934 2929 2923 2918 2913 2908 2903 2897 2892 2885 2879 2874 2868 2863 2857 2852 2849 2845 2841 2837 2831 2825 2820 2815 2812 2808 2807
3021 3014 3006 2997 2989 2982 2974 2969 2964 2960 2956 2951 2946 2942 2937 2932 2927 2922 2917 2911 2906 2900 2895 2889 2885 2879 2873 2866 2861 2856 2851 2847 2843 2839 2834 2829 2824 2817 2811 2806 2803 2801 2800
3011 3004 2995 2987 2981 2974 2968 2963 2958 2954 2950 2945 2940 2936 2931 2926 2921 2915 2910 2904 2899 2892 2887 2882 2876 2871 2866 2860 2855 2850 2846 2843 2839 2835 2829 2822 2815 2809 2804 2801 2799 2797 2796
3001 2994 2987 2979 2973 2968 2964 2959 2953 2948 2944 2939 2935 2930 2925 2920 2915 2909 2903 2897 2891 2885 2880 2874 2868 2864 2859 2853 2849 2845 2843 2840 2836 2831 2825 2818 2811 2806 2803 2801 2799 2796 2794
2993 2985 2978 2973 2966 2962 2957 2952 2947 2943 2939 2934 2929 2925 2920 2914 2909 2903 2896 2891 2885 2879 2873 2867 2861 2855 2852 2848 2843 2841 2838 2836 2832 2828 2823 2817 2810 2806 2804 2801 2799 2796 2794
2987 2980 2972 2966 2962 2956 2952 2947 2942 2938 2934 2929 2924 2919 2914 2908 2902 2896 2891 2885 2879 2874 2868 2862 2856 2851 2846 2842 2839 2837 2835 2833 2830 2826 2821 2816 2809 2805 2803 2801 2798 2796 2794